sat.trackr.live / text

‹ back to catalog

HULIANWANG DIGUI-37

NORAD 64958 · 2025-159C

PAYLOAD ACTIVE UNKNOWN

§ Identity

Operator
Country
PRC
Launch date
2025-07-27
Launch site
TAISC
Launch vehicle
Mass (kg)
RCS (m²)

External: N2YO · Heavens-Above · Gunter

§ Orbital elements

Epoch: 2026-09-21T22:36:12.356352Z

Period
108.73 min
Inclination
86.4862°
Eccentricity
0.0002042
Mean motion
13.24401627 rev/d
Perigee alt
1,166.4 km
Apogee alt
1,169.5 km
Semi-major
7,546.1 km
B*
-1.7878e-4
RAAN
249.5535°
Arg perigee
87.3750°
Mean anomaly
272.7618°
Rev number
5,593

§ Raw data

HULIANWANG DIGUI-371 64958U 25159C   26264.94180968 -.00000062  00000+0 -17878-3 0  99922 64958  86.4862 249.5535 0002042  87.3750 272.7618 13.24401627 55934

JSON: /api/v1/satellites/64958 · /tle

For live sub-satellite position, see the globe view (requires WebGL).

§ Visibility from observer

Set your observer location to see the next 7 days of passes ≥ 10°. The values pass through the URL so the page stays shareable.

No JS? Fill the form by hand. The geolocation button needs JavaScript.